Vorticity
9 10 10 10 11 11 11 11 12 12 12 12 12 13 13 13 13 13 13 13 14 13 13 14 14 14 14 14 14 14 14 14 14 14 14 14 14 13 13 13 13 12 12 12 11 11 10 10 10 9 9 9 9 8 8 9 7 3 -1 -3 1 4 6 6 8 9 8 7 7
12 12 12 13 13 13 13 13 13 13 13 13 13 13 13 13 12 12 12 12 12 12 12 12 12 12 12 12 12 12 12 12 11 11 11 11 10 10 10 10 9 9 8 8 8 8 7 7 7 7 7 7 7 7 7 7 6 4 2 1 2 4 5 5 6 5 4 2 6
13 12 12 12 12 12 12 12 11 11 11 11 11 11 11 10 10 10 10 10 10 10 10 10 10 9 9 9 9 9 9 8 8 8 8 7 7 7 6 6 6 6 6 5 5 5 5 5 5 6 6 6 6 6 6 6 6 6 6 7 9 8 6 2 2 2 1 -0 4
11 11 10 10 10 10 9 9 8 8 8 8 8 8 8 8 8 8 8 8 8 8 8 7 7 7 7 6 6 6 6 6 6 6 5 5 5 4 4 4 4 4 4 4 4 4 4 4 4 5 5 5 5 5 6 6 6 6 6 6 6 5 4 4 4 5 6 7 8
8 8 8 7 7 7 6 6 6 6 6 6 6 6 6 6 6 6 6 6 6 6 6 6 6 6 6 5 5 5 5 5 4 4 4 4 4 4 3 3 3 3 4 4 4 4 4 4 4 5 5 5 5 5 6 6 6 6 6 6 6 6 6 7 6 4 3 4 6
6 5 5 5 5 5 5 5 5 5 5 5 5 5 5 5 5 5 5 5 5 5 5 5 5 5 5 5 5 5 5 5 4 4 4 4 4 4 4 4 4 4 4 4 4 5 5 5 5 5 5 5 6 6 6 6 6 6 6 6 6 5 5 6 6 6 5 4 3
4 4 4 5 5 5 5 5 5 5 5 5 5 5 5 6 6 6 6 6 6 6 6 6 6 6 6 5 5 5 5 5 5 5 5 5 5 5 5 6 6 6 6 6 6 6 6 6 6 7 7 6 6 7 6 6 6 6 7 7 6 6 5 6 6 6 6 6 6
4 5 5 5 6 6 6 6 6 6 7 7 7 7 7 7 7 7 7 7 7 7 7 7 7 7 7 7 7 7 7 7 7 7 7 7 7 7 7 7 7 7 7 8 8 8 8 8 8 8 8 7 7 7 7 7 7 7 7 7 7 7 6 6 7 7 7 7 7
6 6 7 7 7 8 8 8 8 8 8 9 9 9 8 8 8 8 8 8 8 8 8 8 8 8 8 8 8 8 8 8 8 8 8 8 8 8 8 8 8 8 8 8 8 9 9 9 9 9 9 9 9 8 8 8 8 8 8 8 8 8 7 7 7 8 8 8 8
7 7 7 8 8 9 9 9 10 10 10 10 10 10 10 10 10 10 10 10 9 9 9 10 9 9 9 9 9 9 9 9 9 9 9 9 9 9 8 8 8 8 8 8 8 8 8 9 9 9 9 9 9 10 9 9 9 9 9 8 8 8 8 8 8 8 9 9 9
6 6 7 7 7 7 8 8 9 9 10 10 10 10 10 10 11 11 10 10 10 10 10 10 10 10 10 10 10 10 10 9 9 9 9 9 9 9 9 9 8 8 8 8 7 7 7 8 8 8 8 9 9 10 10 10 10 10 10 9 9 9 9 9 9 9 10 10 10
4 4 4 4 5 5 6 6 6 7 8 8 8 9 9 10 10 10 10 10 10 10 10 10 10 10 10 10 10 10 9 9 9 9 10 10 10 9 9 9 9 8 8 8 8 7 7 7 7 7 8 8 8 8 9 10 10 10 10 10 10 10 10 10 10 10 10 10 10
2 2 2 2 3 4 4 5 5 6 6 7 7 8 8 8 8 9 9 10 10 9 10 10 10 10 10 10 10 10 10 9 9 9 9 9 9 9 9 9 9 9 9 8 8 8 7 8 7 7 8 8 8 8 8 8 9 9 10 10 10 10 10 10 10 10 10 10 10
0 1 1 2 2 3 4 4 5 5 6 6 6 7 7 7 8 8 8 8 8 8 8 9 10 10 10 10 10 9 9 9 9 9 9 9 9 9 9 9 9 9 9 9 9 8 9 9 9 8 8 9 8 8 8 8 9 9 9 10 10 10 10 10 10 10 10 10 10
0 1 1 2 3 3 4 4 5 5 6 6 7 7 7 7 8 8 8 8 8 8 8 8 9 9 10 10 9 9 9 9 9 9 9 9 9 9 9 9 9 9 9 9 9 10 10 10 10 10 10 10 10 10 10 10 10 10 10 10 10 10 10 10 10 10 10 10 10
1 1 2 2 3 4 4 5 5 6 6 7 7 8 8 8 8 8 8 8 8 8 8 9 9 9 9 10 10 9 9 9 9 9 9 9 8 8 8 8 9 9 9 9 10 10 10 11 11 11 12 12 12 12 11 11 11 12 12 12 12 12 12 11 11 11 11 10 10
2 2 2 3 4 4 4 5 6 6 7 7 8 8 8 8 8 9 9 8 8 8 9 9 9 9 9 9 10 10 10 10 10 10 9 9 9 9 9 9 9 9 9 10 10 10 10 10 10 11 11 11 12 12 12 12 12 12 12 12 12 12 12 12 12 12 12 12 11
2 2 3 4 4 4 5 5 6 7 7 7 8 8 8 8 8 9 9 9 9 8 8 9 9 9 9 9 10 10 10 11 11 11 10 10 10 10 10 10 10 10 10 10 10 10 10 10 10 10 10 10 10 10 10 10 10 10 10 10 10 10 10 11 11 11 11 11 11
2 3 3 4 4 5 5 6 6 7 7 8 8 8 8 9 9 9 9 10 10 9 8 8 9 9 9 9 9 10 11 11 12 12 12 11 11 11 11 11 11 11 11 11 11 10 10 10 9 9 9 9 9 9 8 8 8 8 8 7 7 7 8 8 8 9 9 10 10
3 3 4 4 4 5 6 7 7 7 7 8 8 8 9 10 10 10 10 10 10 10 9 8 9 9 9 9 9 10 10 11 11 12 12 12 12 12 12 12 12 11 11 11 11 11 10 10 10 9 9 9 8 8 8 7 7 7 6 6 6 5 5 5 5 6 6 7 8
4 4 4 4 5 6 6 7 8 8 8 9 9 10 10 10 11 11 11 10 10 10 10 9 9 9 9 9 10 10 10 10 11 11 11 11 11 11 11 11 11 11 11 10 10 10 10 10 10 10 9 9 9 8 8 8 8 7 7 6 6 5 5 4 4 4 4 5 5
4 4 4 4 5 6 7 7 8 9 9 9 10 10 10 11 12 12 11 11 10 10 10 10 10 10 10 9 9 9 9 9 10 10 10 10 10 10 10 10 10 10 10 10 10 10 10 9 9 9 9 9 9 8 8 8 8 8 8 7 7 6 6 6 5 5 5 4 5
4 4 4 5 6 7 8 8 9 10 10 10 11 11 12 12 12 12 12 11 11 11 10 10 10 10 10 10 9 9 9 9 8 8 8 8 8 9 9 8 9 9 9 9 9 9 9 9 9 9 9 9 9 9 8 8 8 8 8 8 8 8 7 7 7 6 6 6 6
4 4 5 6 7 8 9 10 10 11 11 11 12 12 13 13 13 13 12 12 12 11 11 11 10 10 10 10 9 9 9 8 8 8 7 7 7 8 8 8 8 8 8 8 8 9 9 10 10 10 10 9 9 9 9 8 8 9 9 9 9 9 8 8 8 8 8 8 7
5 5 6 8 9 9 10 11 12 12 12 12 13 13 14 14 14 13 13 12 12 12 11 11 11 10 10 10 10 9 9 9 9 8 8 8 7 7 7 7 7 7 7 8 8 9 9 10 10 10 10 10 10 10 10 10 9 9 10 10 10 10 10 10 10 10 10 10 10
6 6 8 9 10 10 11 13 13 13 13 13 14 15 15 15 14 14 13 13 12 12 12 11 11 11 11 10 10 10 10 10 10 10 10 10 9 9 8 8 8 7 7 7 8 8 8 9 10 10 10 11 11 11 11 11 11 11 11 11 11 12 12 12 12 11 11 12 12
7 8 9 10 11 12 13 13 14 14 15 16 16 16 15 15 14 14 14 13 13 13 13 12 12 12 12 11 11 11 11 11 11 11 11 11 12 12 12 12 10 9 8 7 7 7 7 8 8 9 9 10 10 11 11 12 12 12 12 13 13 14 14 14 14 14 13 13 13
9 9 10 12 13 14 14 15 16 17 17 17 16 16 15 15 15 14 14 14 14 14 14 14 14 14 13 13 13 12 13 13 12 12 12 12 12 13 15 16 16 14 12 9 8 7 7 6 7 7 7 8 8 9 10 11 12 13 13 14 15 15 16 16 16 16 16 16 16
10 11 13 15 16 16 16 18 18 18 17 17 16 16 15 15 15 15 15 15 16 16 16 16 16 15 15 14 14 14 13 13 12 12 11 10 10 10 13 16 19 19 17 14 12 10 8 7 7 6 6 7 7 8 10 11 12 13 14 15 16 16 17 18 18 19 19 19 18
14 15 16 17 17 18 18 19 18 18 18 17 17 17 16 16 16 16 16 17 17 17 17 17 17 16 16 15 15 14 13 12 10 10 9 8 7 6 7 10 14 17 17 15 13 12 10 9 8 8 8 8 9 10 11 12 13 14 14 15 15 16 16 17 18 18 19 19 19
17 18 18 18 19 19 19 19 19 19 19 18 18 18 18 18 18 18 18 18 18 18 18 17 17 16 16 16 15 14 12 10 8 7 7 7 7 6 5 5 7 9 11 12 12 11 11 11 11 11 11 12 13 14 14 15 15 15 14 14 14 14 14 15 15 16 16 17 17
19 20 20 20 20 20 20 20 20 20 20 20 19 19 19 19 18 18 19 19 19 19 18 16 16 16 16 17 16 13 10 6 5 6 7 8 9 9 9 7 7 7 8 10 11 12 13 14 14 15 16 17 18 18 18 18 17 16 15 14 13 13 12 12 12 12 12 13 13
21 21 21 21 21 21 21 21 21 21 20 20 20 19 19 19 18 18 18 18 17 17 17 16 15 16 16 17 15 12 8 5 6 8 10 13 14 15 15 15 14 13 13 14 15 16 17 18 19 20 20 20 21 21 20 19 18 16 15 13 12 11 10 9 9 8 8 8 9
22 22 22 22 21 21 21 21 20 20 20 19 19 18 17 17 17 16 15 14 14 14 14 14 14 15 15 15 13 12 10 9 11 14 17 20 21 21 21 21 21 20 20 20 20 21 21 22 22 22 21 21 20 20 19 18 17 15 14 12 10 9 7 6 5 5 5 5 5
22 22 21 21 21 20 20 20 19 19 18 17 16 15 14 13 13 13 13 12 12 13 13 14 14 14 14 14 13 14 15 17 20 22 24 24 24 24 24 23 22 22 22 22 22 21 20 20 19 18 17 16 16 15 14 14 13 12 11 10 8 6 5 4 2 2 2 2 2
22 21 20 19 19 19 18 18 17 16 15 14 13 12 12 12 12 12 13 14 15 16 17 17 17 17 17 17 18 20 22 24 25 25 24 23 23 22 21 20 19 19 18 18 16 16 14 14 13 12 11 10 9 9 8 8 7 7 7 6 5 4 3 2 1 0 -0 -0 1
21 19 18 17 18 18 17 16 16 15 14 13 13 13 14 14 16 17 18 20 21 22 21 21 21 21 22 22 22 23 24 24 23 22 20 19 18 17 16 15 14 13 12 11 10 9 8 7 6 5 5 4 4 4 3 3 3 3 3 3 2 2 1 0 0 -0 -0 -0 1
19 18 17 17 17 17 16 15 15 15 15 15 16 17 18 20 22 23 24 24 24 24 24 23 23 22 22 22 22 21 20 18 17 16 14 13 12 11 11 10 9 7 6 5 4 4 3 2 2 2 1 2 2 2 2 2 2 2 2 1 1 1 0 0 0 1 1 2 4
18 18 18 17 17 16 16 16 16 17 18 19 20 22 22 23 24 24 24 23 22 22 21 20 20 19 18 17 16 15 13 11 10 9 8 8 7 6 6 5 4 3 2 1 1 0 0 0 0 0 0 1 2 2 2 2 3 2 2 2 3 3 3 3 4 5 6 8 9
18 18 17 17 16 16 17 18 18 19 20 21 22 22 22 21 20 19 18 17 16 16 15 14 13 12 11 10 9 8 7 6 5 4 4 4 3 3 2 2 2 1 1 -0 -0 0 0 1 2 2 3 3 4 5 5 6 6 7 8 8 9 10 12 13 14 15 16 17 18
17 16 16 16 16 17 18 19 19 19 19 18 18 17 16 15 14 13 12 10 10 9 8 7 7 6 5 4 4 4 3 3 2 2 2 2 2 1 1 1 2 2 2 2 2 3 4 5 6 7 9 10 11 12 13 13 14 16 17 18 20 21 23 24 25 25 25 25 25
Height
5753 5752 5750 5749 5747 5745 5744 5742 5741 5739 5737 5736 5734 5733 5731 5730 5728 5726 5724 5723 5721 5719 5718 5716 5714 5713 5711 5709 5708 5706 5704 5703 5701 5699 5698 5696 5694 5693 5692 5690 5689 5687 5686 5684 5683 5681 5679 5678 5677 5675 5674 5673 5671 5670 5669 5668 5669 5668 5667 5665 5662 5662 5662 5661 5659 5657 5654 5651 5649
5749 5748 5746 5744 5743 5741 5739 5738 5736 5734 5733 5731 5729 5728 5726 5725 5723 5721 5720 5718 5716 5714 5713 5711 5710 5708 5706 5704 5703 5701 5699 5698 5696 5695 5693 5692 5690 5688 5686 5685 5683 5682 5680 5679 5677 5676 5674 5673 5671 5669 5668 5667 5666 5665 5664 5663 5662 5661 5661 5659 5657 5657 5657 5655 5654 5652 5649 5647 5647
5745 5744 5742 5741 5739 5737 5735 5734 5732 5730 5729 5727 5725 5723 5722 5720 5719 5717 5715 5713 5711 5710 5708 5707 5705 5704 5702 5700 5698 5696 5695 5693 5692 5690 5689 5687 5685 5683 5681 5680 5678 5676 5675 5673 5672 5670 5669 5667 5665 5664 5663 5661 5660 5659 5658 5657 5655 5654 5653 5652 5651 5652 5651 5649 5647 5645 5644 5642 5644
5742 5740 5739 5737 5735 5733 5731 5730 5728 5726 5724 5723 5721 5719 5717 5716 5714 5712 5710 5709 5707 5705 5704 5702 5700 5699 5697 5695 5694 5692 5690 5688 5686 5685 5683 5682 5680 5678 5676 5674 5673 5671 5669 5668 5666 5664 5663 5661 5659 5658 5657 5656 5654 5653 5652 5651 5649 5648 5646 5645 5644 5644 5643 5641 5640 5639 5638 5637 5637
5738 5736 5735 5733 5731 5729 5728 5726 5724 5722 5720 5719 5717 5715 5713 5711 5710 5708 5706 5704 5702 5700 5699 5697 5695 5694 5692 5690 5689 5687 5685 5683 5681 5679 5678 5676 5674 5673 5671 5669 5667 5665 5664 5662 5660 5658 5657 5655 5654 5652 5651 5650 5649 5647 5646 5644 5643 5641 5640 5639 5638 5636 5635 5634 5633 5633 5633 5632 5630
5734 5733 5731 5729 5728 5726 5724 5722 5720 5718 5716 5715 5713 5711 5709 5707 5705 5704 5702 5700 5698 5696 5694 5692 5690 5689 5687 5685 5684 5682 5680 5678 5676 5674 5673 5671 5669 5667 5665 5664 5662 5660 5658 5656 5654 5652 5651 5649 5647 5646 5644 5643 5642 5641 5639 5638 5636 5634 5633 5632 5631 5630 5629 5627 5625 5624 5624 5624 5622
5731 5729 5728 5726 5724 5722 5720 5719 5717 5715 5713 5711 5709 5707 5705 5703 5701 5699 5697 5695 5694 5691 5689 5688 5686 5684 5682 5680 5679 5677 5675 5673 5671 5669 5667 5666 5664 5662 5660 5658 5656 5654 5652 5650 5648 5646 5644 5643 5641 5640 5638 5637 5636 5634 5633 5632 5630 5628 5627 5626 5624 5623 5622 5620 5619 5617 5616 5614 5614
5727 5725 5724 5722 5720 5719 5717 5715 5713 5711 5709 5707 5705 5703 5701 5699 5697 5695 5693 5691 5689 5687 5685 5683 5681 5679 5677 5675 5673 5671 5670 5668 5666 5664 5662 5660 5659 5656 5654 5653 5651 5649 5647 5644 5643 5640 5639 5637 5635 5634 5632 5631 5629 5628 5626 5625 5624 5622 5620 5619 5618 5617 5615 5614 5612 5610 5609 5608 5606
5723 5721 5720 5718 5716 5714 5713 5710 5709 5707 5705 5703 5701 5699 5697 5695 5693 5691 5689 5687 5684 5683 5680 5678 5676 5674 5672 5670 5668 5666 5664 5663 5661 5659 5657 5655 5653 5651 5649 5647 5646 5644 5641 5639 5637 5635 5633 5631 5629 5628 5626 5624 5623 5622 5620 5619 5617 5616 5614 5613 5612 5610 5609 5607 5606 5604 5603 5601 5600
5719 5717 5716 5714 5712 5710 5708 5706 5704 5702 5700 5698 5696 5694 5693 5690 5688 5686 5684 5682 5680 5678 5676 5674 5672 5669 5667 5665 5663 5661 5659 5657 5655 5653 5651 5649 5648 5646 5644 5642 5640 5638 5636 5634 5632 5630 5628 5626 5624 5622 5620 5619 5617 5615 5614 5612 5611 5609 5608 5607 5605 5604 5603 5601 5600 5598 5596 5595 5594
5715 5713 5711 5709 5708 5705 5704 5702 5699 5697 5695 5694 5691 5689 5688 5685 5683 5681 5679 5677 5675 5673 5671 5669 5666 5664 5662 5660 5658 5656 5654 5652 5649 5648 5646 5644 5642 5640 5638 5636 5634 5632 5630 5628 5626 5624 5622 5620 5619 5617 5615 5613 5611 5610 5608 5606 5605 5603 5602 5600 5599 5598 5597 5595 5594 5592 5591 5589 5588
5711 5709 5707 5705 5703 5701 5699 5697 5695 5693 5691 5689 5687 5684 5682 5680 5678 5676 5674 5672 5670 5668 5665 5663 5661 5659 5657 5654 5653 5650 5648 5646 5644 5642 5640 5638 5636 5634 5632 5630 5628 5626 5624 5622 5620 5618 5616 5614 5613 5611 5609 5608 5606 5604 5602 5601 5599 5597 5596 5594 5593 5592 5590 5589 5588 5587 5585 5583 5582
5706 5704 5702 5700 5699 5696 5694 5692 5690 5688 5686 5684 5682 5679 5678 5675 5673 5671 5669 5666 5664 5662 5660 5658 5655 5653 5651 5649 5647 5644 5643 5641 5639 5636 5634 5632 5630 5628 5626 5624 5622 5620 5618 5616 5614 5612 5610 5608 5606 5604 5603 5601 5600 5598 5596 5595 5593 5591 5590 5589 5588 5586 5585 5584 5582 5581 5579 5577 5576
5701 5699 5698 5696 5694 5691 5689 5687 5685 5683 5681 5679 5677 5674 5672 5670 5668 5665 5663 5661 5659 5657 5654 5652 5650 5648 5645 5643 5641 5639 5637 5635 5633 5631 5629 5626 5624 5622 5620 5618 5616 5614 5612 5609 5607 5605 5603 5601 5599 5598 5596 5595 5593 5592 5590 5589 5587 5585 5584 5583 5582 5580 5579 5578 5576 5575 5573 5572 5570
5696 5694 5693 5690 5688 5686 5684 5682 5679 5678 5675 5673 5671 5669 5667 5664 5662 5660 5658 5655 5653 5651 5649 5647 5644 5642 5640 5637 5635 5633 5631 5629 5627 5625 5623 5620 5618 5616 5614 5612 5610 5608 5605 5604 5601 5599 5597 5595 5593 5591 5589 5588 5586 5585 5584 5582 5581 5579 5578 5577 5575 5574 5573 5572 5571 5569 5568 5566 5564
5691 5689 5687 5685 5683 5680 5678 5676 5674 5672 5669 5667 5665 5663 5660 5658 5656 5654 5652 5649 5647 5645 5643 5641 5639 5637 5634 5632 5629 5627 5625 5623 5621 5619 5617 5614 5612 5610 5608 5606 5604 5602 5599 5598 5595 5593 5591 5589 5586 5584 5583 5581 5580 5579 5578 5576 5575 5574 5572 5571 5569 5568 5567 5566 5564 5563 5562 5560 5559
5686 5684 5682 5679 5677 5675 5672 5670 5668 5665 5663 5661 5658 5656 5654 5652 5649 5647 5645 5643 5641 5639 5637 5634 5633 5630 5629 5626 5623 5621 5619 5617 5615 5613 5610 5608 5606 5604 5602 5600 5598 5595 5594 5591 5589 5587 5585 5583 5580 5578 5576 5575 5574 5572 5571 5570 5569 5568 5567 5565 5564 5563 5561 5560 5559 5557 5556 5554 5552
5680 5678 5676 5674 5671 5669 5666 5664 5661 5659 5657 5654 5652 5649 5647 5645 5643 5640 5638 5636 5634 5632 5630 5628 5626 5624 5622 5620 5617 5615 5613 5611 5609 5606 5604 5602 5600 5598 5595 5593 5591 5589 5587 5585 5583 5581 5579 5577 5574 5572 5570 5569 5568 5566 5565 5564 5564 5562 5561 5560 5559 5557 5556 5555 5553 5552 5550 5548 5547
5675 5672 5670 5667 5665 5663 5660 5658 5655 5653 5650 5648 5645 5643 5640 5638 5636 5634 5632 5629 5627 5625 5623 5621 5619 5617 5615 5613 5611 5609 5606 5604 5602 5600 5598 5595 5593 5591 5589 5587 5585 5583 5581 5579 5576 5574 5572 5570 5568 5566 5564 5563 5562 5560 5559 5558 5557 5556 5555 5554 5553 5552 5551 5549 5548 5546 5544 5543 5541
5669 5666 5664 5661 5659 5656 5654 5651 5649 5646 5644 5641 5639 5637 5634 5632 5629 5627 5625 5623 5620 5618 5616 5614 5612 5610 5609 5606 5604 5602 5600 5598 5596 5594 5592 5589 5587 5585 5583 5580 5579 5576 5574 5572 5570 5568 5565 5563 5561 5559 5558 5557 5555 5554 5553 5552 5551 5550 5549 5548 5547 5546 5545 5543 5542 5540 5539 5537 5536
5662 5659 5657 5654 5652 5650 5647 5645 5642 5640 5638 5635 5633 5630 5628 5625 5623 5621 5619 5616 5614 5612 5609 5607 5605 5604 5602 5600 5598 5596 5594 5591 5589 5587 5585 5583 5581 5579 5576 5574 5572 5570 5568 5566 5563 5561 5559 5556 5554 5553 5551 5550 5549 5547 5546 5545 5544 5544 5543 5542 5541 5539 5538 5537 5535 5534 5533 5531 5529
5655 5653 5650 5648 5645 5643 5641 5638 5636 5634 5631 5629 5626 5624 5621 5619 5617 5614 5612 5609 5607 5605 5603 5601 5599 5597 5595 5593 5591 5589 5587 5585 5583 5581 5579 5577 5575 5572 5570 5568 5566 5564 5562 5559 5557 5554 5552 5550 5548 5546 5544 5543 5542 5540 5539 5538 5538 5537 5536 5535 5534 5533 5532 5530 5529 5527 5526 5524 5523
5649 5646 5644 5641 5639 5636 5634 5631 5629 5627 5624 5622 5619 5617 5614 5612 5610 5607 5605 5603 5600 5598 5596 5594 5592 5590 5589 5587 5585 5583 5581 5579 5577 5575 5573 5571 5569 5566 5564 5562 5560 5558 5556 5553 5551 5548 5546 5543 5541 5539 5537 5536 5535 5534 5533 5531 5531 5530 5529 5528 5527 5526 5525 5524 5522 5520 5519 5517 5516
5643 5640 5637 5635 5632 5630 5627 5625 5622 5620 5617 5615 5612 5610 5608 5605 5603 5600 5598 5596 5594 5591 5589 5587 5585 5584 5582 5580 5578 5576 5574 5572 5570 5569 5566 5564 5563 5560 5558 5556 5554 5552 5549 5547 5544 5542 5539 5537 5534 5532 5530 5529 5528 5527 5526 5525 5524 5523 5522 5521 5520 5519 5518 5517 5515 5514 5512 5511 5509
5636 5634 5631 5628 5625 5623 5620 5618 5615 5613 5610 5608 5605 5603 5600 5598 5595 5593 5591 5589 5586 5584 5582 5580 5578 5576 5574 5573 5571 5569 5567 5565 5564 5562 5560 5558 5556 5554 5552 5549 5548 5545 5543 5541 5539 5536 5533 5530 5528 5526 5524 5522 5521 5520 5519 5518 5517 5516 5515 5514 5512 5511 5510 5509 5509 5507 5506 5504 5503
5629 5627 5624 5621 5619 5616 5613 5610 5608 5606 5603 5600 5598 5595 5593 5590 5588 5586 5584 5581 5579 5577 5574 5573 5571 5569 5567 5565 5564 5562 5560 5558 5556 5554 5553 5551 5549 5547 5545 5543 5541 5539 5537 5535 5532 5530 5527 5525 5522 5519 5517 5515 5514 5513 5513 5512 5511 5510 5509 5507 5505 5504 5503 5502 5501 5500 5499 5498 5497
5623 5620 5617 5614 5612 5609 5606 5604 5601 5598 5596 5593 5591 5588 5585 5583 5580 5578 5576 5574 5571 5569 5567 5565 5563 5561 5560 5558 5556 5554 5553 5550 5549 5547 5545 5543 5542 5540 5538 5536 5534 5532 5530 5528 5526 5524 5521 5519 5516 5514 5511 5509 5507 5506 5506 5505 5504 5504 5502 5501 5499 5497 5496 5495 5494 5493 5492 5491 5490
5616 5614 5610 5608 5605 5602 5599 5596 5594 5591 5589 5586 5584 5581 5578 5575 5573 5571 5568 5566 5564 5562 5560 5558 5556 5554 5552 5551 5549 5547 5545 5543 5541 5539 5538 5536 5534 5533 5531 5529 5527 5524 5522 5520 5519 5516 5514 5512 5510 5508 5505 5503 5501 5500 5499 5499 5498 5497 5496 5494 5493 5491 5489 5488 5487 5486 5485 5484 5483
5609 5607 5604 5601 5598 5595 5592 5589 5587 5584 5581 5579 5576 5574 5571 5568 5566 5564 5561 5559 5557 5555 5553 5551 5549 5547 5545 5544 5542 5540 5538 5536 5534 5532 5530 5529 5527 5525 5523 5521 5519 5517 5515 5513 5511 5509 5507 5505 5503 5501 5499 5496 5494 5494 5493 5492 5491 5490 5489 5488 5486 5485 5483 5482 5480 5479 5478 5477 5476
5602 5599 5597 5594 5591 5588 5585 5582 5579 5577 5574 5571 5569 5566 5564 5561 5559 5556 5554 5552 5550 5548 5546 5544 5542 5540 5539 5536 5534 5533 5531 5529 5527 5525 5524 5522 5520 5518 5516 5514 5512 5510 5508 5506 5504 5502 5500 5498 5496 5494 5492 5490 5488 5487 5486 5486 5485 5484 5483 5482 5480 5479 5478 5476 5474 5473 5472 5470 5469
5595 5592 5589 5586 5584 5580 5578 5575 5573 5570 5567 5564 5562 5559 5557 5554 5552 5549 5547 5545 5544 5541 5539 5537 5536 5534 5532 5530 5528 5526 5524 5523 5520 5519 5517 5515 5513 5511 5509 5507 5505 5503 5501 5499 5496 5494 5493 5491 5489 5487 5485 5483 5482 5481 5480 5479 5478 5477 5476 5475 5474 5473 5472 5470 5469 5467 5465 5464 5463
5587 5584 5582 5579 5576 5574 5571 5568 5566 5563 5560 5558 5555 5553 5550 5548 5546 5543 5541 5539 5537 5535 5533 5531 5529 5528 5526 5524 5522 5520 5518 5516 5514 5512 5510 5508 5506 5504 5502 5500 5498 5496 5494 5492 5489 5487 5485 5484 5482 5480 5478 5476 5475 5474 5473 5472 5471 5470 5470 5469 5468 5467 5466 5464 5463 5461 5460 5458 5457
5580 5577 5574 5572 5569 5567 5564 5561 5559 5557 5554 5552 5549 5547 5544 5542 5540 5538 5535 5533 5531 5529 5527 5525 5523 5521 5519 5517 5515 5514 5512 5510 5508 5506 5504 5502 5499 5497 5495 5494 5491 5489 5487 5485 5483 5480 5479 5477 5475 5473 5471 5469 5468 5467 5466 5465 5464 5464 5463 5462 5462 5460 5459 5458 5457 5455 5454 5452 5451
5573 5570 5568 5565 5562 5560 5558 5555 5553 5550 5548 5546 5543 5541 5539 5536 5534 5532 5530 5527 5525 5524 5521 5519 5517 5515 5513 5510 5509 5507 5505 5504 5501 5499 5497 5495 5493 5491 5489 5487 5485 5483 5481 5479 5476 5474 5472 5470 5468 5466 5464 5463 5461 5460 5459 5458 5457 5457 5456 5456 5455 5454 5453 5452 5450 5449 5448 5446 5444
5566 5564 5561 5559 5556 5554 5552 5549 5547 5544 5542 5540 5538 5535 5533 5531 5529 5526 5524 5522 5520 5518 5515 5513 5511 5509 5507 5504 5502 5500 5499 5497 5494 5492 5490 5488 5486 5484 5483 5480 5478 5477 5474 5472 5470 5467 5465 5463 5461 5459 5457 5456 5454 5453 5452 5452 5451 5450 5449 5449 5448 5448 5446 5445 5444 5443 5441 5440 5438
5559 5557 5555 5552 5550 5548 5545 5544 5541 5539 5537 5534 5532 5530 5528 5525 5523 5520 5518 5516 5514 5512 5510 5507 5505 5503 5501 5498 5496 5494 5492 5490 5488 5486 5484 5481 5480 5478 5476 5474 5472 5470 5469 5466 5464 5461 5459 5456 5454 5453 5451 5449 5448 5446 5445 5444 5444 5443 5442 5442 5441 5440 5440 5439 5438 5436 5435 5433 5431
5553 5550 5549 5547 5544 5542 5540 5538 5536 5534 5531 5529 5526 5524 5522 5520 5517 5514 5512 5510 5509 5506 5504 5501 5499 5497 5495 5493 5491 5489 5486 5484 5482 5480 5478 5475 5474 5472 5470 5469 5466 5464 5463 5460 5458 5455 5452 5450 5448 5446 5444 5442 5440 5439 5438 5437 5436 5435 5434 5434 5434 5433 5432 5431 5430 5429 5428 5427 5425
5547 5544 5543 5541 5539 5536 5534 5532 5530 5528 5525 5523 5521 5519 5516 5514 5512 5509 5506 5504 5502 5500 5498 5496 5494 5492 5489 5487 5485 5483 5481 5479 5476 5474 5472 5470 5468 5466 5464 5463 5460 5459 5456 5454 5452 5449 5446 5443 5441 5439 5437 5435 5433 5432 5430 5429 5428 5427 5426 5426 5425 5425 5425 5424 5423 5422 5421 5419 5418
5541 5539 5537 5535 5533 5531 5529 5527 5524 5522 5520 5518 5515 5513 5510 5508 5506 5504 5501 5499 5496 5494 5492 5490 5488 5486 5484 5482 5480 5478 5476 5474 5471 5469 5467 5464 5462 5460 5458 5456 5454 5452 5450 5448 5445 5442 5439 5437 5434 5432 5430 5428 5426 5424 5422 5421 5420 5419 5418 5418 5418 5417 5417 5416 5416 5414 5414 5412 5411
5536 5534 5532 5530 5528 5525 5524 5521 5519 5516 5514 5513 5510 5508 5505 5503 5501 5498 5496 5494 5491 5489 5487 5485 5483 5481 5479 5476 5474 5473 5470 5468 5466 5464 5461 5459 5456 5454 5452 5450 5448 5445 5443 5441 5439 5436 5433 5430 5428 5425 5423 5420 5418 5416 5414 5413 5411 5410 5410 5409 5409 5409 5409 5408 5408 5407 5406 5404 5403
5531 5529 5527 5524 5522 5520 5518 5516 5514 5511 5509 5507 5505 5503 5500 5498 5495 5493 5491 5489 5486 5484 5482 5480 5478 5475 5473 5471 5469 5467 5465 5463 5460 5458 5455 5453 5450 5447 5445 5443 5441 5438 5436 5434 5432 5429 5426 5423 5420 5418 5415 5413 5410 5408 5406 5404 5403 5401 5401 5400 5400 5400 5399 5399 5399 5399 5398 5397 5396